Hays, KS

6:37 PM CDT on June 17, 2019 (GMT -0500)
Hays Regional

Weather History for KHYS - May, 2019

Change the Weather History Date:

Saturday, May 18, 2019

  Actual Average Record
Temperature  
Mean Temperature 60 °F -  
Max Temperature 70 °F 74 °F 95 °F (1998)
Min Temperature 51 °F 49 °F 37 °F (1999)
Degree Days  
Heating Degree Days 5    
Growing Degree Days 10 (Base 50)    
Moisture  
Dew Point 53 °F    
Average Humidity 77    
Maximum Humidity 93    
Minimum Humidity 56    
Precipitation  
Precipitation 0.56 in - - ()
Sea Level Pressure  
Sea Level Pressure 29.59 in    
Wind  
Wind Speed 13 mph (NW)    
Max Wind Speed 36 mph    
Max Gust Speed 43 mph    
Visibility 9 miles    
Events Rain , Thunderstorm    
Averages and records for this station are not official NWS values.
T = Trace of Precipitation, MM = Missing Value Source: NWS Daily Summary

Daily Weather History Graph

Daily Weather History Graph

Search for Another Location

Airport or City:

Astronomy

May. 18, 2019 Rise Set
Actual Time 6:22 AM CDT 8:45 PM CDT
Civil Twilight 5:52 AM CDT 9:15 PM CDT
Nautical Twilight 5:14 AM CDT 9:52 PM CDT
Astronomical Twilight 4:33 AM CDT 10:34 PM CDT
Moon 8:42 PM CDT (5/18) 6:29 AM CDT (5/18)
Length of Visible Light 15h 23m
Length of Day
14h 22m
Full, 100% of the Moon is Illuminated
May 18
Full
May 18
Full
May 26
Last Quarter
Jun 3
New
Jun 10
First Quarter

Hourly Weather History & Observations

Time (CDT) Temp. Dew Point Humidity Pressure Visibility Wind Dir Wind Speed Gust Speed Precip Events Conditions
12:06 AM 66.2 °F 60.8 °F 83% 29.54 in 10.0 mi SSE 13.8 mph - N/A Thunderstorm Mostly Cloudy
12:26 AM 68.0 °F 55.4 °F 64% 29.57 in 5.0 mi WSW 13.8 mph 26.5 mph N/A Thunderstorm Unknown
12:56 AM 66.0 °F 55.9 °F 70% 29.50 in 7.0 mi South 13.8 mph - 0.01 in Thunderstorm Thunderstorm
1:26 AM 64.4 °F 59.0 °F 83% 29.56 in 10.0 mi West 15.0 mph 20.7 mph N/A Thunderstorm Mostly Cloudy
1:39 AM 60.8 °F 55.4 °F 82% 29.58 in 10.0 mi WNW 18.4 mph - N/A Thunderstorm Mostly Cloudy
1:46 AM 60.8 °F 55.4 °F 82% 29.59 in 10.0 mi WNW 13.8 mph - N/A   Scattered Clouds
1:56 AM 60.1 °F 55.0 °F 83% 29.56 in 10.0 mi WNW 12.7 mph - N/A   Partly Cloudy
2:56 AM 57.0 °F 53.1 °F 87% 29.57 in 10.0 mi WNW 12.7 mph - N/A   Clear
3:56 AM 55.9 °F 51.1 °F 84% 29.60 in 10.0 mi WNW 6.9 mph - N/A   Clear
4:56 AM 53.1 °F 50.0 °F 89% 29.60 in 10.0 mi West 8.1 mph - N/A   Clear
5:56 AM 51.1 °F 48.9 °F 92% 29.59 in 10.0 mi WNW 6.9 mph - N/A   Clear
6:56 AM 51.1 °F 48.0 °F 89% 29.60 in 10.0 mi WNW 9.2 mph - N/A   Clear
7:56 AM 55.0 °F 48.0 °F 77% 29.62 in 10.0 mi NW 9.2 mph - N/A   Clear
8:56 AM 57.0 °F 50.0 °F 77% 29.60 in 10.0 mi NNW 13.8 mph - N/A   Clear
9:56 AM 60.1 °F 51.1 °F 72% 29.60 in 10.0 mi North 13.8 mph - N/A   Clear
10:56 AM 61.0 °F 52.0 °F 72% 29.64 in 10.0 mi NNE 9.2 mph - N/A   Clear
11:56 AM 64.0 °F 52.0 °F 65% 29.60 in 10.0 mi NNE 10.4 mph - N/A   Clear
12:56 PM 66.0 °F 52.0 °F 60% 29.57 in 10.0 mi North 12.7 mph - N/A   Clear
1:56 PM 68.0 °F 52.0 °F 56% 29.55 in 10.0 mi NNE 12.7 mph - N/A   Clear
2:56 PM 68.0 °F 53.1 °F 59% 29.57 in 10.0 mi East 16.1 mph - N/A   Clear
3:56 PM 69.1 °F 55.9 °F 63% 29.55 in 10.0 mi ENE 16.1 mph 21.9 mph N/A   Clear
4:56 PM 69.1 °F 54.0 °F 58% 29.56 in 10.0 mi NE 12.7 mph - N/A   Clear
5:56 PM 66.0 °F 54.0 °F 65% 29.54 in 10.0 mi ENE 15.0 mph - N/A   Clear
6:56 PM 63.0 °F 57.0 °F 81% 29.56 in 10.0 mi East 8.1 mph - N/A   Clear
7:56 PM 62.1 °F 57.9 °F 86% 29.55 in 10.0 mi ENE 8.1 mph - N/A   Clear
8:29 PM 62.6 °F 59.0 °F 88% 29.63 in 10.0 mi SW 10.4 mph - N/A   Mostly Cloudy
8:56 PM 57.0 °F 48.9 °F 74% 29.63 in 8.0 mi WSW 15.0 mph 25.3 mph 0.11 in Rain Heavy Rain
9:56 PM 54.0 °F 52.0 °F 93% 29.65 in 9.0 mi West 23.0 mph 32.2 mph 0.38 in Rain Light Rain
10:56 PM 52.0 °F 48.9 °F 89% 29.71 in 5.0 mi North 35.7 mph 42.6 mph 0.06 in Rain Rain